www.pogodaiklimat.ru

Погода и климат >> Архив погоды >> Россия >> Якутия >> Сухана


ПОГОДА в Сухане

  • Прогноз погоды в Сухане
  • Монитор погоды в Сухане
  • Климат города

АРХИВ ПОГОДЫ в Сухане

Время (UTC), дата Ветер
(напр.,м/с)
 
Видим.   Явления Облачность Т
(С)
Тd
(С)
f
(%)
Тe
(С)
Тes
(С)
Комфортность P
(гПа)
Po
(гПа)
Тmin
(С)
Tmax
(С)
R
(мм)
R24
(мм)
S
(см)
06 17.06 С 5 50 км ясно +20.0 +3.0 32 +20 +25 1009.6 1000.5
09 17.06 СВ 5 50 км ясно +21.4 +2.1 28 +21 +24 комфорт 1008.5 999.5
12 17.06 С 4 50 км 1/0
[Ci fib]
+20.2 +3.4 33 +21 +21 комфорт 1007.9 998.9 +21.8
15 17.06 С 1 50 км 1/0
[Ac trans]
+16.6 +4.8 46 +18 +18 1007.9 998.9
18 17.06 СЗ 1 50 км 3/0
[Ci fib]
+12.2 +5.6 64 +12 +12 1008.2 999.1
21 17.06 штиль 0 50 км 6/0
[Ci fib]
+11.8 +5.8 67 +11 +13 1008.1 999.0
00 18.06 СЗ 2 50 км 8/0
[Ac trans Ci sp]
+15.6 +5.3 50 +16 +20 1007.4 998.3 +8.8
03 18.06 В 2 50 км 9/0
[Ac trans Cc]
+19.3 +6.8 44 +20 +28 1006.8 997.0
06 18.06 В 2 50 км 8/3 600 м
[Cb cap Ci sp]
+22.6 +4.6 31 +23 +29 комфорт 1004.9 996.1
09 18.06 штиль 0 50 км 10/10 600 м
[Cb cap]
+21.7 +6.1 36 +22 +22 комфорт 1004.2 995.4
12 18.06 В 1 50 км 9/9 600 м
[Cb cap]
+20.8 +8.2 44 +23 +23 комфорт 1004.4 995.4 +22.8
15 18.06 С 1 50 км 3/3 600 м
[Cb cap]
+17.2 +9.5 61 +18 +18 1004.0 995.0
18 18.06 С 1 50 км 5/5 600 м
[Cb cap]
+10.1 +7.8 86 +10 +10 1004.2 994.9
21 18.06 Ю 1 50 км {ливн. осадки} 9/9 600 м
[Cb cap]
+11.9 +9.8 87 +12 +12 1003.3 994.2
00 19.06 СЗ 1 50 км {ливн. осадки} 9/9 600 м
[Cb cap]
+15.1 +9.9 71 +16 +16 1003.0 993.9 +9.1 0.4
03 19.06 ЮВ 2 50 км гроза без осадков 10/10 600 м
[Cb cap]
+15.2 +9.8 70 +15 +15 1002.8 993.7
06 19.06 ЮВ 1 50 км в посл. час ливневой дождь {гроза} 10/10 600 м
[Cb cap]
+13.6 +11.5 87 +14 +14 1002.5 993.4
09 19.06 ЮЗ 2 50 км в посл. час ливневой дождь 10/10 600 м
[Cb cap]
+12.0 +10.9 93 +11 +11 1003.4 994.3
12 19.06 Ю 2 50 км {ливн. осадки} 10/10 600 м
[Cb cap]
+11.5 +10.2 92 +10 +10 1004.5 995.4 +16.1 5
15 19.06 Ю 3 50 км 10/10 600 м
[Cb cap]
+10.7 +9.5 92 +9 +9 1005.0 995.7
18 19.06 В 1 50 км 10/10 600 м
[Cb cap]
+10.3 +8.9 91 +10 +10 1005.9 996.6
21 19.06 С 1 50 км 10/10 600 м
[Cb cap]
+11.0 +8.8 86 +11 +11 1006.7 997.4
00 20.06 Ю 1 50 км 6/6 600 м
[Cb cap]
+14.7 +10.3 75 +15 +18 1006.6 997.5 +10.1
03 20.06 ЮВ 2 50 км 1/1 600 м
[Cu med, cong]
+18.7 +9.9 57 +20 +29 1006.0 997.0
06 20.06 ЮВ 2 50 км 3/3 600 м
[Cu med, cong Ci fib]
+23.1 +5.8 33 +24 +30 комфорт 1005.5 996.7
09 20.06 З 2 50 км 5/5 600 м
[Cu med, cong]
+23.2 +8.9 40 +25 +27 комфорт 1004.5 995.7
12 20.06 С 3 50 км 3/3 600 м
[Cb cap]
+22.0 +9.2 44 +23 +24 комфорт 1004.6 995.8 +23.2
15 20.06 С 2 50 км 3/3 1000 м
[Sc]
+18.4 +9.8 57 +19 +19 1005.2 996.2
18 20.06 С 1 50 км 3/3 1000 м
[Sc]
+12.5 +8.9 79 +13 +13 1006.2 997.1
21 20.06 С 1 50 км ясно +13.6 +9.5 76 +14 +16 1006.6 997.5
00 21.06 З 1 50 км 3/3 600 м
[Cb cap]
+20.0 +11.1 57 +23 +28 комфорт 1006.3 997.3 +9.8
03 21.06 Ю 1 50 км 3/3 600 м
[Cu med, cong Ci fib]
+24.2 +8.5 37 +25 +34 комфорт 1005.3 996.5
06 21.06 штиль 0 50 км 8/5 600 м
[Cu med, cong Ci fib]
+25.7 +7.7 32 +26 +32 жарко 1004.6 995.8
09 21.06 Ю 2 50 км 8/6 600 м
[Cu med, cong Ci fib]
+26.8 +7.8 30 +27 +28 жарко 1003.7 995.0
12 21.06 З 1 50 км 8/3 600 м
[Cu Sc Ci fib]
+26.7 +9.0 33 +27 +28 жарко 1003.7 995.0 +27.8
15 21.06 штиль 0 50 км 8/1 600 м
[Cu hum Cs]
+20.5 +11.9 58 +22 +22 комфорт 1004.7 995.7
18 21.06 С 1 50 км 8/0
[Cs]
+13.6 +10.7 83 +14 +14 1005.6 996.5
21 21.06 штиль 0 50 км 3/0
[Ci fib]
+14.8 +10.9 77 +15 +17 1006.4 997.3
00 22.06 В 1 50 км 3/0
[Cs]
+22.7 +13.2 55 +26 +33 жарко 1005.8 997.0 +13.2
03 22.06 ЮВ 4 50 км 5/1 600 м
[Cu hum Ci fib]
+26.7 +9.3 33 +27 +33 жарко 1005.0 996.3
06 22.06 Ю 3 50 км 3/3 600 м
[Cu hum Ci fib]
+28.0 +8.0 28 +28 +33 жарко 1004.6 995.9
09 22.06 Ю 3 50 км 6/6 600 м
[Cu hum]
+28.2 +8.8 30 +28 +30 жарко 1004.5 995.8
12 22.06 штиль 0 50 км 3/3 600 м
[Cu hum]
+27.2 +11.3 37 +28 +29 жарко 1005.2 996.5 +28.7
15 22.06 штиль 0 50 км 3/0
[Ac trans Ci sp]
+20.8 +11.7 56 +23 +23 комфорт 1006.1 997.1
18 22.06 СЗ 1 50 км 3/0
[Ci fib]
+13.5 +11.4 87 +14 +14 1008.0 998.9
21 22.06 штиль 0 50 км 3/0
[Ci fib]
+15.6 +12.0 79 +15 +18 1009.0 999.9
00 23.06 штиль 0 50 км 3/0
[Cs]
+22.2 +14.8 63 +26 +34 душно 1009.4 1000.5 +13.5
03 23.06 Ю 2 50 км 4/1 600 м
[Cu hum Ac trans Ci sp]
+28.2 +9.5 31 +28 +36 жарко 1009.0 1000.2
06 23.06 З 2 50 км 8/4 600 м
[Cu hum Cc]
+29.0 +9.5 30 +29 +34 жарко 1008.2 999.5
09 23.06 Ю 2 50 км 8/6 600 м
[Cb cap Ci fib]
+27.9 +10.6 34 +28 +30 жарко 1008.0 999.3
12 23.06 ЮЗ 2 50 км 8/3 600 м
[Cb cap Ci fib]
+28.5 +10.9 33 +29 +30 жарко 1008.1 999.4 +29.8
15 23.06 ЮЗ 2 50 км 4/3 1000 м
[Sc diur, vesp Ci fib]
+22.4 +12.6 54 +25 +25 комфорт 1009.0 1000.1
18 23.06 штиль 0 50 км 4/3 1000 м
[Sc Ci fib]
+15.3 +12.0 81 +15 +15 1010.3 1001.1
21 23.06 штиль 0 50 км 3/3 1000 м
[Sc Ci fib]
+16.9 +12.7 76 +17 +18 1009.8 1000.7
00 24.06 штиль 0 50 км 9/9 1000 м
[Sc]
+19.6 +15.6 78 +21 +22 комфорт 1009.6 1000.5 +13.8

 

Местоположение метеостанции Сухана (Якутия, Россия): широта 68.62 долгота 118.30 высота над уровнем моря 77 м.

В архиве по умолчанию представлена погода в Сухане за последнюю неделю. Архивные данные за месяц целиком и за предыдущие месяцы, начиная с января 2011 года, Вы можете получить, выбрав интересующий диапазон дат из раскрывающегося списка и нажав кнопку "Ввод!".


*Определитесь, кто Вы:
робот инопланетянин человек

Внимание! Время в таблицах - всемирное. Для получения местного времени необходимо прибавить поправку, которая в Сухане равна 9 ч.

Смотрите также архив погоды в соседних городах и на ближайших метеорологических станциях:

Погода в Джарджане (Якутия, Россия) (231 км)
Погода в Оленеке (Якутия, Россия) (240 км)
Погода в Джалинде (Якутия, Россия) (241 км)
Погода в Эйке (Якутия, Россия) (291 км)
Погода в Жиганске (Якутия, Россия) (294 км)
Погода в Шелагонцах (Якутия, Россия) (316 км)
Погода в Полярном (Якутия, Россия) (326 км)
Погода в Саскылахе (Якутия, Россия) (406 км)
Погода в Тюмяти (Якутия, Россия) (415 км)
Погода в Айхале (Якутия, Россия) (419 км)

Пояснения к столбцам:

Ветер - указаны скорость ветра в м/с - средняя за 10 мин, порывы в срок и между сроками (в фигурных скобках) и направление, откуда дует ветер: С - северный, СВ - северо-восточный, В - восточный, ЮВ - юго-восточный, Ю - южный, ЮЗ - юго-западный, З - западный, СЗ - северо-западный.
Видимость - горизонтальная дальность видимости в метрах или километрах. При видимости от 1 до 10 км при отсутствии осадков обычно наблюдается дымка, при ухудшении видимости до 1 км и менее - туман. В сухую погоду видимость может ухудшаться дымом, пылью или мглою.
Явления - указаны атмосферные явления, наблюдавшиеся в срок или в последний час перед сроком; фигурными скобками обозначены явления, наблюдавшиеся между сроками (за 1-3 часа до срока); квадратными скобками обозначены град или гололедные отложения с указанием их диаметра в мм.
Облачность - указаны через наклонную черту общая и нижняя облачность в баллах и высота нижней границы облаков в метрах; квадратными скобками обозначены формы облаков: Ci - перистые, Cs - перисто-слоистые, Cc - перисто-кучевые, Ac - высококучевые, As - высокослоистые, Sc - слоисто-кучевые, Ns - слоисто-дождевые, Cu - кучевые, Cb - кучево-дождевые. Подробнее классификацию облаков см. в Атласе облаков (PDF).
T - Температура воздуха - температура, измеренная на высоте 2 м над землей.
Td - Температура точки росы - температура, при понижении до которой содержащийся в воздухе водяной пар достигнет насыщения.
f - Относительная влажность воздуха - влажноcть воздуха, измеренная на высоте 2 м над землей.
Te - Эффективная температура - температура, которую ощущает одетый по сезону человек в тени. Характеристика душности погоды. При расчете учитывается влияние влажности воздуха и скорости ветра на теплоощущения человека.
Tes - Эффективная температура на солнце - температура, которую ощущает человек, с поправкой на солнечный нагрев. Характеристика знойности погоды. Зависит от высоты солнца над горизонтом, облачности и скорости ветра. Ночью, в пасмурную погоду, а также при ветре 12 м/с и более поправка равна нулю.
P - Атмосферное давление - приведенное к уровню моря атмосферное давление.
Po - Атмосферное давление - измеренное на уровне метеостанции атмосферное давление.
Tmin - Минимальная температура - минимум температуры воздуха на высоте 2 м над землей.
Tmax - Максимальная температура - максимум температуры воздуха на высоте 2 м над землей.
R - Количество осадков - Количество выпавших осадков за период времени, мм. При наведении курсора мыши на число - период времени, за который выпало указанное количество осадков.
R24 - Количество осадков - Количество выпавших осадков за 24 часа, мм.
S - Снежный покров - Высота снежного покрова, см. При наведении курсора мыши на число - состояние снежного покрова и степень покрытия местности в баллах.